Voltar ao catálogo

SL-8 R/B

AtivoPO
NORAD 28910·ROCKET BODY·🇷🇺 Russia

Lançado Dec 21, 2005 de Plesetsk Cosmodrome

Loading…

Próximas Passagens (próximas 24 horas)

TLE

AtualizadoSource: Space-Track

Época: Sep 14, 2026, 23:17 UTC

1 28910U 05048C   26257.97032899 -.00000029  00000-0 -24368-3 0  9995
2 28910  82.4617 255.4307 0015965 259.8184 127.0317 12.54966759949668

Acompanhe SL-8 R/B em tempo real com AllMySat

Download on the App Store